Dewpoint
20 21 21 21 22 23 26 28 25 22 25 27 29 29 29 27 29 27 27 31 32 33 34 38 48 48 50 49 47 47 46 45 43 40 38 37 37 37 36 35 34 34 34 35
21 21 21 20 21 20 22 24 27 26 24 24 26 27 27 23 23 23 24 29 32 33 35 37 45 46 46 44 44 43 43 42 39 38 36 37 37 37 35 34 34 34 35 35
18 19 18 16 18 18 19 19 21 23 24 24 23 23 21 21 22 22 23 24 28 33 35 38 42 46 44 42 40 39 40 39 38 37 36 36 36 35 34 33 34 34 34 35
20 12 9 10 13 18 17 18 19 17 17 23 23 20 20 21 20 19 22 23 26 33 35 38 41 42 41 39 38 38 38 37 37 37 36 36 35 34 34 34 33 33 34 35
18 15 13 14 12 12 16 15 17 17 17 18 20 19 22 25 25 30 29 26 29 31 35 37 39 39 39 37 37 36 36 36 36 36 35 35 34 34 34 33 33 33 34 35
19 16 11 10 13 16 14 12 17 18 18 19 20 17 21 24 25 26 29 31 32 32 32 36 37 37 36 36 35 34 35 35 35 35 34 34 34 33 33 33 33 32 31 33
22 20 17 15 15 17 10 14 20 21 21 21 22 23 24 25 26 27 28 29 31 32 32 32 36 36 35 34 34 34 34 35 35 35 34 34 34 33 32 31 30 29 28 28
22 20 19 19 14 13 20 22 23 24 24 25 24 25 25 26 26 27 28 29 31 31 32 33 33 35 34 33 34 34 34 34 34 34 33 33 33 31 29 29 28 26 25 25
20 21 25 24 24 22 23 23 23 23 25 24 25 25 25 26 26 26 27 27 29 30 31 32 32 33 34 33 32 33 33 33 33 32 32 31 30 29 28 28 27 25 25 24
25 26 28 31 25 24 23 23 24 24 25 26 24 25 26 26 27 27 28 28 29 30 29 30 31 32 32 33 32 32 32 32 32 31 29 29 29 28 27 27 26 25 24 23
31 32 32 33 27 25 26 27 27 26 26 27 26 26 26 27 27 28 28 29 30 29 29 30 31 31 31 32 32 31 31 31 31 31 29 27 27 27 26 26 27 24 24 22
28 33 33 33 33 33 30 31 31 29 27 27 28 28 28 28 29 30 30 30 30 30 30 30 30 30 30 31 32 31 30 30 30 29 27 27 26 25 31 30 33 32 31 26
35 37 36 36 35 36 35 36 36 34 31 29 29 28 29 29 30 29 27 27 29 29 30 30 30 29 30 31 32 31 30 28 29 27 25 25 24 24 26 31 34 33 33 32
35 35 33 34 33 36 35 35 34 31 30 30 31 29 29 28 30 30 29 27 27 27 28 29 29 29 28 29 30 30 29 31 28 25 25 25 25 24 25 26 26 29 33 32
34 35 34 33 32 31 31 30 25 25 27 31 32 33 33 32 32 32 32 31 27 26 26 25 24 24 25 26 27 27 27 27 26 26 26 26 26 25 24 25 26 26 25 33
32 30 26 23 23 23 24 25 27 31 32 33 33 32 32 31 32 31 32 32 30 29 27 26 27 29 29 28 28 30 30 32 32 31 31 31 30 29 27 26 24 22 22 22
28 27 29 28 29 30 29 28 28 30 30 29 29 29 29 29 30 30 30 31 32 32 31 31 31 33 33 32 32 32 32 32 34 33 32 32 31 29 27 26 24 23 23 24
24 23 20 20 20 19 21 25 27 28 29 29 29 29 29 28 28 29 30 29 28 32 32 34 33 32 32 33 33 32 32 32 32 32 32 32 32 32 31 30 30 30 30 30
17 17 17 17 18 17 17 18 19 19 19 20 23 26 28 28 28 28 27 25 26 23 29 31 31 31 32 33 34 33 32 31 31 31 31 32 32 30 30 29 29 27 24 23
16 16 16 17 17 17 16 17 17 17 18 19 19 19 18 19 18 19 19 18 19 25 24 25 29 29 29 30 32 31 29 28 28 28 28 29 29 29 30 30 29 27 24 23
15 16 16 16 17 17 18 18 17 17 18 18 18 18 18 18 18 19 19 19 20 25 26 26 25 25 25 26 26 25 26 27 26 24 23 22 22 23 23 24 25 25 24 24
17 16 17 17 16 17 18 17 18 18 18 19 20 19 19 19 19 19 19 19 22 25 24 23 23 26 26 27 26 25 25 24 23 23 23 22 21 21 21 22 23 23 24 25
18 16 15 16 17 17 16 17 18 18 18 19 20 19 19 20 20 19 19 20 22 23 23 23 25 26 26 25 24 24 24 24 25 25 24 23 23 23 23 22 23 23 23 23
16 15 15 15 16 15 15 16 17 18 18 19 19 19 18 19 19 20 21 22 23 22 21 22 22 24 24 23 22 23 23 23 23 23 24 27 24 23 23 23 22 23 23 24
15 15 14 14 14 15 15 16 17 17 18 18 17 17 18 19 18 17 19 19 21 20 19 20 21 21 19 20 21 21 22 21 20 22 22 22 23 23 23 23 23 23 22 22
14 14 15 15 15 15 16 16 17 18 17 16 16 16 17 17 17 16 17 17 16 17 16 17 18 17 18 19 19 20 20 20 21 21 22 22 24 23 23 22 23 24 24 22
16 19 17 16 16 16 16 17 17 16 17 18 18 17 16 16 15 15 16 14 14 15 16 16 16 17 18 18 19 19 19 19 21 20 20 21 22 23 22 23 23 24 23 23
Lifted_Index
4 4 5 5 5 5 5 4 3 3 3 3 4 4 3 3 3 4 4 4 5 6 6 5 2 -1 -3 -3 -3 -3 -2 -1 -1 -1 -1 1 3 5 8 10 12 13 13 13
3 4 4 4 5 5 5 4 4 3 3 4 5 5 4 4 3 4 4 4 5 6 6 6 4 1 -1 -2 -2 -2 -1 -1 -1 -1 -0 1 3 5 8 10 12 13 13 14
3 3 4 4 4 4 4 4 4 3 3 4 5 6 5 5 4 4 4 5 5 6 6 6 5 3 1 0 0 0 1 1 0 -0 0 2 4 6 8 11 12 13 14 14
3 3 4 5 5 4 4 4 5 4 4 5 6 6 6 6 6 5 5 6 6 6 6 6 5 4 3 2 2 2 2 2 1 1 1 3 5 7 9 11 12 13 14 14
3 3 4 5 5 5 4 4 5 5 5 5 5 5 6 6 7 7 7 7 7 6 6 6 6 5 4 4 4 4 4 3 2 2 2 4 6 8 10 12 13 14 14 14
3 3 4 5 5 5 5 5 5 5 5 5 5 5 5 6 7 7 7 7 7 7 7 6 6 6 6 6 6 6 5 5 4 4 4 6 8 10 11 13 13 13 14 14
2 3 4 5 5 5 5 5 5 6 5 5 5 5 6 7 7 7 7 7 7 7 7 7 7 7 7 7 7 7 7 7 6 6 7 8 9 11 12 13 13 13 13 13
2 3 4 4 4 4 5 5 6 6 6 6 5 6 6 7 7 7 7 7 7 7 7 7 7 7 7 8 8 8 8 8 8 8 8 9 10 11 12 12 12 12 12 13
2 3 3 4 4 4 5 5 6 6 6 6 6 6 6 6 7 7 7 7 7 7 7 7 8 8 8 8 8 8 8 8 8 8 9 9 10 11 12 12 11 11 11 12
2 2 3 3 3 4 4 5 5 5 6 6 5 5 5 5 6 7 7 7 7 7 7 7 8 8 8 8 9 8 8 8 8 8 9 9 10 11 11 11 11 11 11 11
1 1 2 2 2 3 3 4 4 4 4 5 5 4 4 5 5 6 6 7 7 7 7 8 8 8 9 9 9 9 8 8 8 8 8 9 9 10 11 11 11 11 11 11
1 1 2 2 2 2 3 3 3 3 3 3 4 4 4 4 5 5 6 6 6 7 7 8 8 9 9 9 9 9 8 8 8 8 9 9 9 9 10 10 11 11 12 12
2 2 2 2 3 3 3 3 3 3 3 4 4 4 5 5 5 5 6 6 6 7 7 8 8 8 9 9 9 9 8 8 8 8 8 8 8 9 9 10 11 11 12 13
3 3 3 3 4 4 4 4 4 4 5 5 5 5 5 5 6 6 6 6 7 7 7 7 8 8 8 9 9 8 8 8 8 8 9 9 9 9 9 9 10 11 12 13
4 4 4 4 5 5 5 5 5 6 6 6 6 6 6 6 6 6 6 7 7 7 7 7 7 8 8 9 9 9 9 9 9 9 9 10 10 10 10 10 10 11 12 13
5 5 5 5 5 6 6 6 6 6 6 7 7 7 7 7 7 7 7 8 8 8 8 8 8 9 10 10 10 10 10 10 10 10 10 10 10 10 10 10 11 11 12 12
5 5 5 6 6 7 7 7 8 8 8 8 8 8 8 8 8 8 9 9 9 9 10 10 10 11 11 11 11 11 11 11 11 11 11 11 11 11 10 10 11 11 11 11
7 7 7 8 8 8 9 9 9 9 9 9 9 9 9 9 10 10 10 11 11 11 12 12 12 12 12 12 12 12 12 12 12 12 12 12 11 11 11 10 10 10 10 11
8 9 9 9 9 10 10 10 10 10 10 10 10 10 10 10 11 11 11 11 11 12 12 13 13 13 13 12 13 12 12 12 12 12 12 11 11 11 10 10 10 10 10 10
9 9 9 9 10 10 10 10 10 10 10 10 10 10 11 11 11 11 11 11 11 11 12 12 12 12 12 11 11 11 11 11 11 11 11 10 10 10 9 9 9 10 10 10
9 9 9 9 9 10 10 10 10 10 10 10 10 10 10 10 10 10 10 11 11 11 11 11 11 11 10 10 10 10 10 10 9 9 9 9 9 9 9 9 9 9 9 9
9 9 9 9 9 9 9 9 9 9 9 9 10 10 10 10 10 10 10 10 10 10 10 10 10 10 10 10 9 9 9 9 9 9 8 8 8 8 8 9 9 9 9 9
8 8 8 8 9 9 9 9 9 9 9 9 9 9 9 9 9 9 9 9 10 10 10 10 10 10 10 10 10 10 9 9 9 9 9 8 8 8 8 8 8 9 9 9
7 7 8 8 8 8 8 8 9 9 9 9 9 9 9 9 9 9 9 9 9 9 10 10 10 10 10 10 10 10 9 9 9 9 9 9 8 8 8 8 8 8 8 8
7 7 7 7 7 7 8 8 8 8 8 8 9 9 9 9 9 10 10 10 10 10 10 10 10 10 10 10 10 10 10 9 9 9 9 9 9 9 8 8 8 8 8 8
6 6 7 7 7 7 7 8 7 8 8 8 8 9 9 10 10 10 10 10 11 11 11 11 11 11 11 10 10 10 10 10 10 10 9 9 9 9 9 9 9 9 9 8
6 7 7 7 7 7 8 8 7 8 8 8 8 9 10 10 10 10 10 11 11 11 11 11 11 11 11 11 10 10 10 10 10 10 10 10 9 9 9 9 9 9 9 9